| time (UTC) | temp C | wind direction | speed KPH | gust KPH | rain 1hr cm | rain 24hr cm | rain mn cm | humidity % | barometer mb |
| 20260508132509 | 13 | 273 | 6.4 | 8.0 | 0.00 | 0.00 | 0.00 | 28 | 1019.0 |
| 20260508132009 | 13 | 261 | 9.7 | 11.3 | 0.00 | 0.00 | 0.00 | 26 | 1019.3 |
| 20260508131547 | 13 | 261 | 8.0 | 11.3 | 0.00 | 0.00 | 0.00 | 27 | 1019.0 |
| 20260508131009 | 13 | 253 | 6.4 | 9.7 | 0.00 | 0.00 | 0.00 | 26 | 1019.2 |
| 20260508130547 | 13 | 247 | 6.4 | 8.0 | 0.00 | 0.00 | 0.00 | 27 | 1018.9 |
| 20260508130046 | 13 | 247 | 4.8 | 6.4 | 0.00 | 0.00 | 0.00 | 26 | 1018.8 |
| 20260508125546 | 12 | 263 | 4.8 | 4.8 | 0.00 | 0.00 | 0.00 | 27 | 1018.8 |
| 20260508125047 | 12 | 260 | 3.2 | 6.4 | 0.00 | 0.00 | 0.00 | 27 | 1019.0 |
| 20260508124547 | 11 | 267 | 4.8 | 6.4 | 0.00 | 0.00 | 0.00 | 28 | 1018.7 |
| 20260508124047 | 11 | 267 | 4.8 | 6.4 | 0.00 | 0.00 | 0.00 | 30 | 1018.8 |
| 20260508123547 | 11 | 8 | 0.0 | 4.8 | 0.00 | 0.00 | 0.00 | 33 | 1018.9 |
| 20260508123008 | 10 | 275 | 3.2 | 4.8 | 0.00 | 0.00 | 0.00 | 33 | 1018.9 |
| 20260508122547 | 11 | 256 | 4.8 | 6.4 | 0.00 | 0.00 | 0.00 | 31 | 1018.9 |
| 20260508122047 | 11 | 249 | 0.0 | 3.2 | 0.00 | 0.00 | 0.00 | 29 | 1019.0 |
| 20260508121547 | 11 | 92 | 3.2 | 4.8 | 0.00 | 0.00 | 0.00 | 28 | 1018.8 |
| 20260508121047 | 12 | 80 | 4.8 | 4.8 | 0.00 | 0.00 | 0.00 | 27 | 1019.0 |
| 20260508120547 | 12 | 234 | 3.2 | 4.8 | 0.00 | 0.00 | 0.00 | 27 | 1018.8 |
| 20260508120008 | 13 | 236 | 3.2 | 4.8 | 0.00 | 0.00 | 0.00 | 26 | 1018.6 |
| 20260508115546 | 13 | 55 | 0.0 | 3.2 | 0.00 | 0.00 | 0.00 | 25 | 1018.6 |
| 20260508115047 | 14 | 54 | 3.2 | 3.2 | 0.00 | 0.00 | 0.00 | 23 | 1018.6 |
| 20260508114547 | 14 | 346 | 0.0 | 3.2 | 0.00 | 0.00 | 0.00 | 22 | 1018.8 |
| 20260508114009 | 15 | 299 | 4.8 | 4.8 | 0.00 | 0.00 | 0.00 | 22 | 1018.6 |
| 20260508113547 | 15 | 261 | 4.8 | 8.0 | 0.00 | 0.00 | 0.00 | 22 | 1018.7 |
| 20260508113008 | 15 | 271 | 6.4 | 8.0 | 0.00 | 0.00 | 0.00 | 22 | 1018.6 |
| 20260508112553 | 15 | 266 | 8.0 | 8.0 | 0.00 | 0.00 | 0.00 | 22 | 1018.5 |
| 20260508112047 | 15 | 274 | 8.0 | 9.7 | 0.00 | 0.00 | 0.00 | 22 | 1018.8 |
| 20260508111546 | 15 | 269 | 8.0 | 9.7 | 0.00 | 0.00 | 0.00 | 21 | 1018.6 |
| 20260508111008 | 15 | 266 | 9.7 | 12.9 | 0.00 | 0.00 | 0.00 | 20 | 1018.7 |
| 20260508110547 | 15 | 261 | 9.7 | 11.3 | 0.00 | 0.00 | 0.00 | 20 | 1018.5 |
| 20260508110047 | 16 | 262 | 9.7 | 11.3 | 0.00 | 0.00 | 0.00 | 20 | 1018.6 |
| 20260508105547 | 15 | 263 | 9.7 | 14.5 | 0.00 | 0.00 | 0.00 | 20 | 1018.7 |
| 20260508103526 | 15 | 256 | 8.0 | 9.7 | 0.00 | 0.00 | 0.00 | 22 | 1018.2 |
| 20260508103046 | 15 | 267 | 9.7 | 12.9 | 0.00 | 0.00 | 0.00 | 21 | 1018.6 |
| 20260508102547 | 15 | 258 | 8.0 | 12.9 | 0.00 | 0.00 | 0.00 | 21 | 1018.4 |
| 20260508102008 | 15 | 266 | 8.0 | 12.9 | 0.00 | 0.00 | 0.00 | 21 | 1018.4 |
| 20260508101546 | 15 | 267 | 6.4 | 9.7 | 0.00 | 0.00 | 0.00 | 22 | 1018.4 |
| 20260508101047 | 15 | 256 | 9.7 | 12.9 | 0.00 | 0.00 | 0.00 | 21 | 1018.6 |
| 20260508100547 | 15 | 257 | 9.7 | 11.3 | 0.00 | 0.00 | 0.00 | 22 | 1018.5 |
| 20260508100008 | 15 | 273 | 8.0 | 11.3 | 0.00 | 0.00 | 0.00 | 22 | 1018.5 |
| 20260508095547 | 15 | 266 | 6.4 | 12.9 | 0.00 | 0.00 | 0.00 | 22 | 1018.5 |
| 20260508095008 | 15 | 251 | 6.4 | 9.7 | 0.00 | 0.00 | 0.00 | 23 | 1018.5 |
| 20260508094546 | 15 | 260 | 8.0 | 12.9 | 0.00 | 0.00 | 0.00 | 22 | 1018.5 |
| 20260508094048 | 15 | 236 | 9.7 | 14.5 | 0.00 | 0.00 | 0.00 | 22 | 1018.5 |
| 20260508093546 | 15 | 254 | 9.7 | 11.3 | 0.00 | 0.00 | 0.00 | 22 | 1018.5 |
| 20260508093008 | 14 | 255 | 9.7 | 9.7 | 0.00 | 0.00 | 0.00 | 23 | 1018.5 |
| 20260508092547 | 13 | 263 | 8.0 | 8.0 | 0.00 | 0.00 | 0.00 | 24 | 1018.6 |
| 20260508092047 | 11 | 260 | 4.8 | 4.8 | 0.00 | 0.00 | 0.00 | 27 | 1018.5 |
| 20260508091510 | 12 | 277 | 4.8 | 6.4 | 0.00 | 0.00 | 0.00 | 27 | 1018.6 |
| 20260508091008 | 12 | 239 | 9.7 | 11.3 | 0.00 | 0.00 | 0.00 | 26 | 1018.6 |
| 20260508090547 | 12 | 252 | 3.2 | 6.4 | 0.00 | 0.00 | 0.00 | 27 | 1018.5 |
| 20260508090047 | 13 | 243 | 4.8 | 6.4 | 0.00 | 0.00 | 0.00 | 25 | 1018.6 |
| 20260508084008 | 15 | 292 | 3.2 | 6.4 | 0.00 | 0.00 | 0.00 | 22 | 1018.7 |
| 20260508083546 | 15 | 261 | 4.8 | 11.3 | 0.00 | 0.00 | 0.00 | 22 | 1018.8 |
| 20260508083047 | 15 | 257 | 8.0 | 12.9 | 0.00 | 0.00 | 0.00 | 22 | 1018.8 |
| 20260508082509 | 15 | 264 | 8.0 | 9.7 | 0.00 | 0.00 | 0.00 | 22 | 1018.9 |
| 20260508082009 | 15 | 262 | 6.4 | 11.3 | 0.00 | 0.00 | 0.00 | 22 | 1018.9 |
| 20260508081547 | 15 | 246 | 6.4 | 8.0 | 0.00 | 0.00 | 0.00 | 22 | 1018.9 |
| 20260508081009 | 15 | 251 | 6.4 | 8.0 | 0.00 | 0.00 | 0.00 | 22 | 1018.8 |
| 20260508080547 | 15 | 267 | 8.0 | 11.3 | 0.00 | 0.00 | 0.00 | 22 | 1018.7 |
| 20260508080047 | 16 | 244 | 11.3 | 12.9 | 0.00 | 0.00 | 0.00 | 22 | 1019.0 |
| 20260508075547 | 16 | 248 | 6.4 | 11.3 | 0.00 | 0.00 | 0.00 | 22 | 1019.0 |
| 20260508075009 | 16 | 258 | 9.7 | 12.9 | 0.00 | 0.00 | 0.00 | 22 | 1018.8 |
| 20260508073009 | 16 | 242 | 6.4 | 9.7 | 0.00 | 0.00 | 0.00 | 22 | 1019.2 |
| 20260508072547 | 15 | 279 | 6.4 | 8.0 | 0.00 | 0.00 | 0.00 | 23 | 1019.0 |
| 20260508072047 | 15 | 254 | 8.0 | 9.7 | 0.00 | 0.00 | 0.00 | 23 | 1019.0 |
| 20260508071547 | 15 | 259 | 6.4 | 11.3 | 0.00 | 0.00 | 0.00 | 23 | 1019.2 |
| 20260508071047 | 15 | 261 | 8.0 | 8.0 | 0.00 | 0.00 | 0.00 | 23 | 1019.0 |
| 20260508070511 | 15 | 253 | 4.8 | 8.0 | 0.00 | 0.00 | 0.00 | 22 | 1019.3 |
| 20260508070005 | 15 | 287 | 0.0 | 4.8 | 0.00 | 0.00 | 0.00 | 22 | 1019.2 |
| 20260508065547 | 15 | 73 | 0.0 | 4.8 | 0.00 | 0.00 | 0.00 | 22 | 1019.0 |
| 20260508065048 | 16 | 201 | 3.2 | 6.4 | 0.00 | 0.00 | 0.00 | 21 | 1019.2 |
| 20260508064509 | 16 | 173 | 3.2 | 6.4 | 0.00 | 0.00 | 0.00 | 21 | 1018.9 |
| 20260508064009 | 16 | 183 | 3.2 | 6.4 | 0.00 | 0.00 | 0.00 | 21 | 1018.9 |
| 20260508063547 | 16 | 131 | 0.0 | 9.7 | 0.00 | 0.00 | 0.00 | 20 | 1019.0 |
| 20260508063009 | 16 | 223 | 4.8 | 12.9 | 0.00 | 0.00 | 0.00 | 20 | 1018.8 |
| 20260508062547 | 16 | 160 | 3.2 | 4.8 | 0.00 | 0.00 | 0.00 | 20 | 1018.8 |
| 20260508062047 | 17 | 262 | 8.0 | 8.0 | 0.00 | 0.00 | 0.00 | 20 | 1019.0 |
| 20260508061547 | 17 | 240 | 3.2 | 19.3 | 0.00 | 0.00 | 0.00 | 20 | 1018.8 |
| 20260508061010 | 17 | 235 | 8.0 | 11.3 | 0.00 | 0.00 | 0.00 | 20 | 1018.7 |
| 20260508060547 | 17 | 238 | 8.0 | 14.5 | 0.00 | 0.00 | 0.00 | 19 | 1018.8 |
| 20260508060046 | 17 | 263 | 12.9 | 22.5 | 0.00 | 0.00 | 0.00 | 19 | 1018.7 |
| 20260508055547 | 17 | 261 | 12.9 | 17.7 | 0.00 | 0.00 | 0.00 | 19 | 1018.9 |
| 20260508055008 | 17 | 247 | 9.7 | 24.1 | 0.00 | 0.00 | 0.00 | 19 | 1018.7 |
| 20260508054547 | 17 | 264 | 9.7 | 16.1 | 0.00 | 0.00 | 0.00 | 19 | 1018.7 |
| 20260508054047 | 17 | 262 | 12.9 | 24.1 | 0.00 | 0.00 | 0.00 | 19 | 1018.8 |
| 20260508053547 | 17 | 256 | 11.3 | 17.7 | 0.00 | 0.00 | 0.00 | 19 | 1018.7 |
| 20260508053046 | 17 | 233 | 19.3 | 24.1 | 0.00 | 0.00 | 0.00 | 19 | 1018.9 |
| 20260508052547 | 17 | 261 | 12.9 | 19.3 | 0.00 | 0.00 | 0.00 | 19 | 1019.0 |
| 20260508052009 | 17 | 238 | 16.1 | 24.1 | 0.00 | 0.00 | 0.00 | 19 | 1018.9 |
| 20260508051547 | 17 | 266 | 17.7 | 22.5 | 0.00 | 0.00 | 0.00 | 19 | 1018.9 |
| 20260508051047 | 17 | 249 | 17.7 | 17.7 | 0.00 | 0.00 | 0.00 | 20 | 1018.9 |
| 20260508050509 | 17 | 283 | 9.7 | 16.1 | 0.00 | 0.00 | 0.00 | 20 | 1018.9 |
| 20260508050009 | 17 | 267 | 9.7 | 17.7 | 0.00 | 0.00 | 0.00 | 20 | 1019.0 |
| 20260508045547 | 18 | 265 | 11.3 | 19.3 | 0.00 | 0.00 | 0.00 | 20 | 1018.7 |
| 20260508045047 | 18 | 259 | 14.5 | 24.1 | 0.00 | 0.00 | 0.00 | 20 | 1018.9 |
| 20260508044547 | 18 | 208 | 14.5 | 24.1 | 0.00 | 0.00 | 0.00 | 20 | 1018.8 |
| 20260508044047 | 18 | 225 | 12.9 | 19.3 | 0.00 | 0.00 | 0.00 | 20 | 1018.7 |
| 20260508043547 | 18 | 275 | 19.3 | 24.1 | 0.00 | 0.00 | 0.00 | 20 | 1018.8 |
| 20260508043009 | 18 | 243 | 12.9 | 24.1 | 0.00 | 0.00 | 0.00 | 21 | 1018.8 |
| 20260508042547 | 18 | 240 | 9.7 | 24.1 | 0.00 | 0.00 | 0.00 | 21 | 1018.9 |
| 20260508042047 | 18 | 241 | 11.3 | 25.7 | 0.00 | 0.00 | 0.00 | 21 | 1018.9 |
| 20260508041510 | 18 | 243 | 19.3 | 22.5 | 0.00 | 0.00 | 0.00 | 21 | 1018.7 |
| 20260508041009 | 17 | 250 | 9.7 | 19.3 | 0.00 | 0.00 | 0.00 | 22 | 1018.8 |
| 20260508040546 | 18 | 246 | 14.5 | 22.5 | 0.00 | 0.00 | 0.00 | 21 | 1018.6 |
| 20260508040009 | 18 | 243 | 20.9 | 25.7 | 0.00 | 0.00 | 0.00 | 22 | 1018.8 |
| 20260508032509 | 18 | 255 | 6.4 | 19.3 | 0.00 | 0.00 | 0.00 | 22 | 1018.2 |
| 20260508032009 | 18 | 277 | 14.5 | 19.3 | 0.00 | 0.00 | 0.00 | 22 | 1018.2 |
| 20260508031547 | 18 | 266 | 9.7 | 16.1 | 0.00 | 0.00 | 0.00 | 22 | 1018.3 |
| 20260508031009 | 18 | 249 | 8.0 | 14.5 | 0.00 | 0.00 | 0.00 | 22 | 1018.1 |
| 20260508030547 | 18 | 245 | 14.5 | 16.1 | 0.00 | 0.00 | 0.00 | 22 | 1018.2 |
| 20260508030047 | 18 | 248 | 9.7 | 17.7 | 0.00 | 0.00 | 0.00 | 21 | 1018.0 |
| 20260508025546 | 18 | 237 | 16.1 | 17.7 | 0.00 | 0.00 | 0.00 | 21 | 1018.0 |
| 20260508025027 | 18 | 255 | 11.3 | 16.1 | 0.00 | 0.00 | 0.00 | 21 | 1018.1 |
| 20260508024547 | 19 | 249 | 11.3 | 17.7 | 0.00 | 0.00 | 0.00 | 21 | 1017.9 |
| 20260508024047 | 19 | 252 | 16.1 | 24.1 | 0.00 | 0.00 | 0.00 | 20 | 1017.9 |
| 20260508023547 | 20 | 264 | 8.0 | 19.3 | 0.00 | 0.00 | 0.00 | 20 | 1017.9 |
| 20260508023009 | 20 | 276 | 17.7 | 29.0 | 0.00 | 0.00 | 0.00 | 20 | 1017.7 |
| 20260508022546 | 20 | 258 | 25.7 | 27.4 | 0.00 | 0.00 | 0.00 | 20 | 1017.7 |
| 20260508022048 | 20 | 265 | 14.5 | 25.7 | 0.00 | 0.00 | 0.00 | 20 | 1017.6 |
| 20260508021546 | 20 | 254 | 11.3 | 22.5 | 0.00 | 0.00 | 0.00 | 20 | 1017.7 |
| 20260508021046 | 20 | 264 | 8.0 | 24.1 | 0.00 | 0.00 | 0.00 | 19 | 1017.7 |
| 20260508020546 | 21 | 272 | 11.3 | 16.1 | 0.00 | 0.00 | 0.00 | 19 | 1017.6 |
| 20260508020009 | 21 | 257 | 16.1 | 16.1 | 0.00 | 0.00 | 0.00 | 19 | 1017.4 |
| 20260508015547 | 21 | 266 | 8.0 | 27.4 | 0.00 | 0.00 | 0.00 | 18 | 1017.6 |
| 20260508015047 | 22 | 264 | 8.0 | 11.3 | 0.00 | 0.00 | 0.00 | 18 | 1017.3 |
| 20260508013008 | 22 | 267 | 11.3 | 14.5 | 0.00 | 0.00 | 0.00 | 18 | 1017.3 |
| 20260508012547 | 23 | 281 | 8.0 | 20.9 | 0.00 | 0.00 | 0.00 | 18 | 1017.4 |
| 20260508012047 | 23 | 269 | 14.5 | 17.7 | 0.00 | 0.00 | 0.00 | 17 | 1017.2 |
| 20260508011547 | 23 | 260 | 14.5 | 16.1 | 0.00 | 0.00 | 0.00 | 16 | 1017.2 |
| 20260508011009 | 23 | 241 | 16.1 | 17.7 | 0.00 | 0.00 | 0.00 | 16 | 1017.3 |
| 20260508010546 | 23 | 292 | 9.7 | 19.3 | 0.00 | 0.00 | 0.00 | 16 | 1017.2 |
| 20260508010046 | 23 | 327 | 12.9 | 14.5 | 0.00 | 0.00 | 0.00 | 16 | 1017.2 |
| 20260508005547 | 23 | 296 | 11.3 | 12.9 | 0.00 | 0.00 | 0.00 | 15 | 1017.2 |
| 20260508005009 | 23 | 61 | 8.0 | 14.5 | 0.00 | 0.00 | 0.00 | 11 | 1016.8 |
| 20260508004546 | 25 | 17 | 8.0 | 11.3 | 0.00 | 0.00 | 0.00 | 11 | 1017.1 |
| 20260508004047 | 25 | 34 | 4.8 | 11.3 | 0.00 | 0.00 | 0.00 | 11 | 1017.1 |
| 20260508003546 | 25 | 249 | 3.2 | 6.4 | 0.00 | 0.00 | 0.00 | 11 | 1017.3 |
| 20260508003046 | 24 | 44 | 0.0 | 9.7 | 0.00 | 0.00 | 0.00 | 11 | 1017.1 |
| 20260508002547 | 24 | 31 | 6.4 | 9.7 | 0.00 | 0.00 | 0.00 | 11 | 1017.1 |
| 20260508002009 | 24 | 54 | 11.3 | 17.7 | 0.00 | 0.00 | 0.00 | 10 | 1017.1 |
| 20260508001547 | 25 | 6 | 12.9 | 19.3 | 0.00 | 0.00 | 0.00 | 11 | 1017.2 |
| 20260508001047 | 24 | 359 | 4.8 | 9.7 | 0.00 | 0.00 | 0.00 | 11 | 1017.3 |
| 20260508000509 | 24 | 320 | 3.2 | 9.7 | 0.00 | 0.00 | 0.00 | 11 | 1017.3 |
| 20260508000009 | 25 | 260 | 16.1 | 19.3 | 0.00 | 0.00 | 0.00 | 10 | 1017.3 |
| 20260507235547 | 26 | 286 | 6.4 | 8.0 | 0.00 | 0.00 | 0.00 | 10 | 1017.3 |
| 20260507235047 | 26 | 283 | 3.2 | 6.4 | 0.00 | 0.00 | 0.00 | 10 | 1017.4 |
| 20260507234547 | 25 | 251 | 9.7 | 12.9 | 0.00 | 0.00 | 0.00 | 10 | 1017.4 |
| 20260507234047 | 26 | 300 | 20.9 | 20.9 | 0.00 | 0.00 | 0.00 | 10 | 1017.4 |
| 20260507233547 | 23 | 28 | 4.8 | 16.1 | 0.00 | 0.00 | 0.00 | 11 | 1017.5 |
| 20260507233009 | 24 | 306 | 20.9 | 24.1 | 0.00 | 0.00 | 0.00 | 11 | 1017.4 |
| 20260507232547 | 25 | 34 | 6.4 | 14.5 | 0.00 | 0.00 | 0.00 | 11 | 1017.6 |
| 20260507232046 | 25 | 31 | 3.2 | 12.9 | 0.00 | 0.00 | 0.00 | 12 | 1017.5 |
| 20260507231510 | 25 | 21 | 8.0 | 20.9 | 0.00 | 0.00 | 0.00 | 12 | 1017.4 |
| 20260507231009 | 25 | 320 | 8.0 | 8.0 | 0.00 | 0.00 | 0.00 | 11 | 1017.4 |
| 20260507230547 | 25 | 100 | 6.4 | 8.0 | 0.00 | 0.00 | 0.00 | 10 | 1017.4 |
| 20260507230010 | 23 | 305 | 16.1 | 24.1 | 0.00 | 0.00 | 0.00 | 11 | 1017.6 |
| 20260507225547 | 25 | 325 | 8.0 | 17.7 | 0.00 | 0.00 | 0.00 | 12 | 1017.5 |
| 20260507225047 | 25 | 335 | 11.3 | 11.3 | 0.00 | 0.00 | 0.00 | 11 | 1017.5 |
| 20260507224547 | 23 | 304 | 17.7 | 20.9 | 0.00 | 0.00 | 0.00 | 12 | 1017.7 |
| 20260507222509 | 24 | 289 | 3.2 | 9.7 | 0.00 | 0.00 | 0.00 | 12 | 1017.8 |
| 20260507222009 | 24 | 103 | 4.8 | 9.7 | 0.00 | 0.00 | 0.00 | 11 | 1017.7 |
| 20260507221547 | 25 | 113 | 3.2 | 14.5 | 0.00 | 0.00 | 0.00 | 12 | 1017.8 |
| 20260507221010 | 23 | 66 | 14.5 | 20.9 | 0.00 | 0.00 | 0.00 | 11 | 1017.9 |
| 20260507220547 | 23 | 75 | 9.7 | 9.7 | 0.00 | 0.00 | 0.00 | 11 | 1017.9 |
| 20260507220047 | 24 | 102 | 4.8 | 16.1 | 0.00 | 0.00 | 0.00 | 12 | 1018.0 |
| 20260507215546 | 24 | 69 | 20.9 | 22.5 | 0.00 | 0.00 | 0.00 | 11 | 1018.0 |
| 20260507215010 | 25 | 52 | 17.7 | 17.7 | 0.00 | 0.00 | 0.00 | 11 | 1017.9 |
| 20260507214546 | 25 | 89 | 6.4 | 17.7 | 0.00 | 0.00 | 0.00 | 10 | 1018.0 |
| 20260507214047 | 24 | 65 | 19.3 | 20.9 | 0.00 | 0.00 | 0.00 | 10 | 1018.1 |
| 20260507213546 | 23 | 46 | 4.8 | 12.9 | 0.00 | 0.00 | 0.00 | 11 | 1018.2 |
| 20260507211547 | 23 | 60 | 12.9 | 22.5 | 0.00 | 0.00 | 0.00 | 11 | 1018.4 |
| 20260507211047 | 24 | 344 | 8.0 | 19.3 | 0.00 | 0.00 | 0.00 | 11 | 1018.6 |
| 20260507210547 | 24 | 334 | 4.8 | 6.4 | 0.00 | 0.00 | 0.00 | 10 | 1018.6 |
| 20260507204009 | 23 | 14 | 4.8 | 14.5 | 0.00 | 0.00 | 0.00 | 13 | 1018.8 |
| 20260507203547 | 23 | 276 | 4.8 | 8.0 | 0.00 | 0.00 | 0.00 | 12 | 1018.8 |
| 20260507203009 | 23 | 176 | 4.8 | 9.7 | 0.00 | 0.00 | 0.00 | 14 | 1019.0 |
| 20260507202547 | 22 | 258 | 8.0 | 20.9 | 0.00 | 0.00 | 0.00 | 14 | 1019.0 |
| 20260507202047 | 22 | 292 | 9.7 | 16.1 | 0.00 | 0.00 | 0.00 | 14 | 1019.0 |
| 20260507201547 | 22 | 356 | 4.8 | 16.1 | 0.00 | 0.00 | 0.00 | 10 | 1019.2 |
| 20260507201047 | 22 | 321 | 4.8 | 9.7 | 0.00 | 0.00 | 0.00 | 14 | 1019.2 |
| 20260507200547 | 22 | 37 | 11.3 | 17.7 | 0.00 | 0.00 | 0.00 | 14 | 1019.2 |
| 20260507200047 | 21 | 327 | 12.9 | 20.9 | 0.00 | 0.00 | 0.00 | 14 | 1019.2 |
| 20260507195509 | 23 | 309 | 12.9 | 20.9 | 0.00 | 0.00 | 0.00 | 15 | 1019.5 |
| 20260507195009 | 22 | 291 | 8.0 | 8.0 | 0.00 | 0.00 | 0.00 | 15 | 1019.5 |
| 20260507194547 | 22 | 314 | 16.1 | 19.3 | 0.00 | 0.00 | 0.00 | 15 | 1019.6 |
| 20260507194047 | 22 | 338 | 9.7 | 24.1 | 0.00 | 0.00 | 0.00 | 14 | 1019.5 |
| 20260507193546 | 22 | 75 | 9.7 | 9.7 | 0.00 | 0.00 | 0.00 | 16 | 1019.5 |
| 20260507193046 | 22 | 318 | 12.9 | 17.7 | 0.00 | 0.00 | 0.00 | 17 | 1019.7 |
| 20260507192547 | 22 | 50 | 9.7 | 14.5 | 0.00 | 0.00 | 0.00 | 15 | 1019.8 |
| 20260507192008 | 22 | 354 | 4.8 | 14.5 | 0.00 | 0.00 | 0.00 | 16 | 1019.9 |
| 20260507191546 | 22 | 322 | 11.3 | 20.9 | 0.00 | 0.00 | 0.00 | 16 | 1020.0 |
| 20260507191047 | 21 | 35 | 8.0 | 11.3 | 0.00 | 0.00 | 0.00 | 16 | 1019.7 |
| 20260507190508 | 22 | 8 | 4.8 | 17.7 | 0.00 | 0.00 | 0.00 | 16 | 1020.1 |
| 20260507190008 | 21 | 336 | 12.9 | 22.5 | 0.00 | 0.00 | 0.00 | 17 | 1019.9 |
| 20260507185547 | 21 | 300 | 11.3 | 24.1 | 0.00 | 0.00 | 0.00 | 18 | 1020.0 |
| 20260507185009 | 22 | 59 | 11.3 | 16.1 | 0.00 | 0.00 | 0.00 | 17 | 1020.0 |
| 20260507184546 | 21 | 42 | 3.2 | 14.5 | 0.00 | 0.00 | 0.00 | 18 | 1020.1 |
| 20260507184047 | 21 | 10 | 11.3 | 25.7 | 0.00 | 0.00 | 0.00 | 18 | 1020.1 |
| 20260507183547 | 21 | 122 | 6.4 | 12.9 | 0.00 | 0.00 | 0.00 | 20 | 1020.1 |
| 20260507183047 | 21 | 125 | 3.2 | 11.3 | 0.00 | 0.00 | 0.00 | 19 | 1020.2 |
| 20260507182547 | 20 | 329 | 4.8 | 9.7 | 0.00 | 0.00 | 0.00 | 20 | 1020.1 |
| 20260507181009 | 21 | 346 | 8.0 | 17.7 | 0.00 | 0.00 | 0.00 | 20 | 1020.2 |
| 20260507180547 | 21 | 293 | 6.4 | 14.5 | 0.00 | 0.00 | 0.00 | 21 | 1020.2 |
| 20260507180047 | 21 | 325 | 11.3 | 16.1 | 0.00 | 0.00 | 0.00 | 21 | 1020.2 |
| 20260507175547 | 21 | 47 | 8.0 | 17.7 | 0.00 | 0.00 | 0.00 | 21 | 1020.1 |
| 20260507175046 | 20 | 72 | 9.7 | 19.3 | 0.00 | 0.00 | 0.00 | 21 | 1020.2 |
| 20260507174547 | 20 | 31 | 12.9 | 20.9 | 0.00 | 0.00 | 0.00 | 21 | 1020.2 |
| 20260507174009 | 20 | 321 | 12.9 | 16.1 | 0.00 | 0.00 | 0.00 | 22 | 1020.4 |
| 20260507173546 | 20 | 168 | 0.0 | 9.7 | 0.00 | 0.00 | 0.00 | 22 | 1020.6 |
| 20260507173047 | 20 | 36 | 9.7 | 16.1 | 0.00 | 0.00 | 0.00 | 20 | 1020.5 |
| 20260507172509 | 19 | 2 | 8.0 | 9.7 | 0.00 | 0.00 | 0.00 | 22 | 1020.5 |
| 20260507172009 | 19 | 354 | 11.3 | 16.1 | 0.00 | 0.00 | 0.00 | 22 | 1020.4 |
| 20260507171547 | 19 | 71 | 9.7 | 12.9 | 0.00 | 0.00 | 0.00 | 22 | 1020.5 |
| 20260507165546 | 18 | 46 | 6.4 | 20.9 | 0.00 | 0.00 | 0.00 | 23 | 1020.5 |
| 20260507165009 | 18 | 63 | 3.2 | 9.7 | 0.00 | 0.00 | 0.00 | 23 | 1020.5 |
| 20260507164547 | 19 | 64 | 14.5 | 17.7 | 0.00 | 0.00 | 0.00 | 23 | 1020.4 |
| 20260507164047 | 18 | 10 | 11.3 | 14.5 | 0.00 | 0.00 | 0.00 | 22 | 1020.7 |
| 20260507163547 | 18 | 59 | 8.0 | 19.3 | 0.00 | 0.00 | 0.00 | 23 | 1020.5 |
| 20260507163010 | 18 | 40 | 4.8 | 14.5 | 0.00 | 0.00 | 0.00 | 23 | 1020.5 |
| 20260507162547 | 18 | 357 | 6.4 | 11.3 | 0.00 | 0.00 | 0.00 | 23 | 1020.7 |
| 20260507162047 | 19 | 41 | 4.8 | 6.4 | 0.00 | 0.00 | 0.00 | 23 | 1020.7 |
| 20260507161546 | 18 | 4 | 4.8 | 11.3 | 0.00 | 0.00 | 0.00 | 22 | 1020.8 |
| 20260507161046 | 17 | 75 | 3.2 | 17.7 | 0.00 | 0.00 | 0.00 | 23 | 1020.5 |
| 20260507160547 | 18 | 52 | 9.7 | 12.9 | 0.00 | 0.00 | 0.00 | 23 | 1020.7 |
| 20260507160009 | 18 | 71 | 9.7 | 11.3 | 0.00 | 0.00 | 0.00 | 22 | 1020.7 |
| 20260507155546 | 17 | 93 | 3.2 | 14.5 | 0.00 | 0.00 | 0.00 | 23 | 1020.8 |
| 20260507155047 | 17 | 86 | 4.8 | 11.3 | 0.00 | 0.00 | 0.00 | 23 | 1020.8 |
| 20260507154510 | 17 | 86 | 8.0 | 12.9 | 0.00 | 0.00 | 0.00 | 23 | 1020.9 |
| 20260507154010 | 17 | 109 | 11.3 | 16.1 | 0.00 | 0.00 | 0.00 | 23 | 1020.9 |
| 20260507153547 | 17 | 125 | 3.2 | 11.3 | 0.00 | 0.00 | 0.00 | 24 | 1020.9 |
| 20260507153009 | 17 | 30 | 14.5 | 16.1 | 0.00 | 0.00 | 0.00 | 23 | 1020.9 |
| 20260507152546 | 17 | 70 | 6.4 | 9.7 | 0.00 | 0.00 | 0.00 | 24 | 1020.8 |
| 20260507152046 | 16 | 84 | 8.0 | 14.5 | 0.00 | 0.00 | 0.00 | 24 | 1020.8 |
| 20260507151546 | 16 | 64 | 4.8 | 12.9 | 0.00 | 0.00 | 0.00 | 24 | 1020.7 |
| 20260507151009 | 16 | 100 | 11.3 | 17.7 | 0.00 | 0.00 | 0.00 | 24 | 1020.9 |
| 20260507150546 | 16 | 72 | 8.0 | 12.9 | 0.00 | 0.00 | 0.00 | 25 | 1020.8 |
| 20260507150046 | 15 | 66 | 9.7 | 17.7 | 0.00 | 0.00 | 0.00 | 25 | 1021.1 |
| 20260507145547 | 16 | 107 | 8.0 | 14.5 | 0.00 | 0.00 | 0.00 | 24 | 1020.9 |
| 20260507145009 | 15 | 53 | 4.8 | 14.5 | 0.00 | 0.00 | 0.00 | 25 | 1020.7 |
| 20260507144547 | 15 | 115 | 6.4 | 12.9 | 0.00 | 0.00 | 0.00 | 24 | 1021.1 |
| 20260507144047 | 16 | 77 | 6.4 | 9.7 | 0.00 | 0.00 | 0.00 | 25 | 1021.1 |
| 20260507143526 | 15 | 105 | 9.7 | 11.3 | 0.00 | 0.00 | 0.00 | 25 | 1021.0 |
| 20260507143046 | 15 | 89 | 4.8 | 6.4 | 0.00 | 0.00 | 0.00 | 26 | 1021.3 |
| 20260507142547 | 14 | 77 | 6.4 | 9.7 | 0.00 | 0.00 | 0.00 | 26 | 1020.8 |
| 20260507142010 | 14 | 96 | 8.0 | 14.5 | 0.00 | 0.00 | 0.00 | 26 | 1020.8 |
| 20260507141547 | 14 | 105 | 4.8 | 6.4 | 0.00 | 0.00 | 0.00 | 27 | 1020.8 |
| 20260507141047 | 14 | 112 | 6.4 | 9.7 | 0.00 | 0.00 | 0.00 | 26 | 1021.0 |
| 20260507140510 | 14 | 119 | 0.0 | 6.4 | 0.00 | 0.00 | 0.00 | 27 | 1020.9 |
| 20260507140047 | 14 | 114 | 6.4 | 8.0 | 0.00 | 0.00 | 0.00 | 26 | 1020.9 |
| 20260507135547 | 14 | 88 | 4.8 | 6.4 | 0.00 | 0.00 | 0.00 | 27 | 1020.8 |
| 20260507135009 | 14 | 65 | 3.2 | 8.0 | 0.00 | 0.00 | 0.00 | 28 | 1020.8 |
| 20260507134547 | 14 | 100 | 3.2 | 6.4 | 0.00 | 0.00 | 0.00 | 29 | 1020.8 |
| 20260507134047 | 13 | 124 | 4.8 | 6.4 | 0.00 | 0.00 | 0.00 | 31 | 1020.6 |